Location: *
(50.9167°S, 179.4000°W)
Time: 20:03:04
(UTC+00:00)

Cosmos 1140 Rocket - Pass Details

Date: 03 March 2024
Orbit: 742 x 765 km, 74.1° (Epoch: 16 April)

Event Time Altitude Azimuth Distance (km) Brightness Sun altitude
Exits shadow 14:43:55 34° 24° (NNE) 1,253 4.4 -23.7°
Maximum altitude 14:45:43 48° 74° (ENE) 1,007 4.2 -23.5°
Drops below altitude 10° 14:50:48 10° 147° (SSE) 2,332 7.1 -22.9°
Sets 14:53:15 0° 152° (SSE) 3,261 8.0 -22.7°
